カタログに戻る

STARLINK-37307

運用中通信SSO
NORAD 68681·PAYLOAD·🇺🇸 United States

打ち上げ Apr 11, 2026 から Vandenberg Space Force Base

Loading…

次のパス (今後24時間)

TLE

最新Source: CelesTrak SupGP

元期: Sep 14, 2026, 23:03 UTC

1 68681C 26077V   26257.96090278  .00070128  00000+0  21758-2 0  2573
2 68681  97.2848 127.9782 0002143  93.6604  27.1061 15.33418393    11

AllMySatでSTARLINK-37307をリアルタイム追跡

Download on the App Store